SCP
0 0 0 0 0 0 0 0 0 0 0 0 0 0 0 0 0 0 0 0 0 0 0 0 0 0 0 0 0 0 0 0 0 0 0 0 0 0 0 0 0 0 0 0 0
0 0 0 0 0 0 0 0 0 0 0 0 0 0 0 0 0 0 0 0 0 0 0 0 0 0 0 0 0 0 0 0 0 0 0 0 0 0 0 0 0 0 0 0 0
0 0 0 0 0 0 0 0 0 0 0 0 0 0 0 0 0 0 0 0 0 0 0 0 0 0 0 0 0 0 0 0 0 0 0 0 0 0 0 0 0 0 0 0 0
0 0 0 0 0 0 0 0 0 0 0 0 0 0 0 0 0 0 0 0 0 -0 0 0 0 0 0 0 0 0 0 0 0 0 0 0 0 0 0 0 0 0 0 0 0
0 0 0 0 0 0 0 0 0 0 0 0 0 0 0 0 0 0 0 0 0 0 0 0 0 0 0 0 0 0 0 0 0 0 0 0 0 0 0 0 0 0 0 0 0
0 0 0 0 0 0 0 0 0 0 0 0 0 0 0 0 0 0 0 0 0 0 0 0 0 0 0 0 0 0 0 0 0 0 0 0 0 0 0 0 0 0 0 0 0
0 0 0 0 0 0 0 0 0 0 0 0 0 0 0 0 0 0 0 0 0 0 0 0 0 0 0 0 0 0 0 0 0 0 0 0 0 0 0 0 0 0 0 0 0
0 0 0 0 0 0 0 0 0 0 0 0 0 0 0 0 0 0 0 0 0 0 0 0 0 0 0 0 0 0 0 0 0 0 0 0 0 0 0 0 0 0 0 0 0
0 0 0 0 0 0 0 0 0 0 0 0 0 0 0 0 0 0 0 0 0 0 0 0 0 0 0 0 0 0 0 0 0 0 0 0 0 0 0 0 0 0 0 0 0
0 0 0 0 0 0 0 0 0 0 0 0 0 0 0 0 0 0 0 0 0 0 0 0 0 0 0 0 0 0 0 0 0 0 0 0 0 0 0 0 0 0 0 0 0
0 0 0 0 0 0 0 0 -0 0 0 0 0 0 0 0 0 0 0 0 0 0 0 0 0 0 0 0 0 0 0 0 0 0 0 0 0 0 0 0 0 0 0 0 0
0 0 0 0 0 0 0 0 0 0 0 0 0 0 0 0 0 0 0 0 0 0 0 0 0 0 0 0 0 0 0 0 0 0 0 0 0 0 0 0 0 0 0 0 0
0 0 0 0 -0 0 0 0 0 -0 -0 0 0 0 0 0 0 0 0 0 0 0 0 0 0 0 0 0 0 0 0 0 0 0 0 -0 0 -0 0 0 0 0 0 0 0
0 0 0 0 -0 0 0 0 -0 -0 -0 0 0 0 0 0 0 0 0 0 0 0 0 0 0 0 0 0 0 0 0 0 0 0 0 0 -0 0 0 0 0 0 0 0 0
0 0 0 0 -0 -0 -0 -0 -0 -0 0 0 0 0 0 0 0 0 -0 0 0 0 0 0 0 0 0 0 0 0 0 0 0 0 0 0 0 0 -0 0 0 0 0 0 -0
0 -0 0 0 -0 -0 -0 -0 -0 -0 0 0 0 0 0 0 0 0 0 -0 0 0 0 0 0 0 0 0 0 0 0 0 0 0 0 0 0 0 0 0 0 0 0 0 0
0 0 -0 -0 -0 -0 -0 -0 -0 0 0 0 0 0 0 0 0 0 0 0 0 0 0 0 0 0 0 0 0 0 0 0 -0 0 0 0 0 0 0 0 0 0 0 0 0
0 -0 0 0 0 -0 -0 -0 0 0 0 0 0 0 0 0 0 0 0 0 0 0 0 0 0 0 0 0 0 0 0 0 0 0 0 0 0 0 0 0 0 0 0 -0 0
0 0 0 0 0 0 0 0 0 0 0 0 0 0 0 0 0 0 0 0 0 0 0 0 0 0 0 0 0 0 0 0 0 0 0 0 0 0 0 0 0 0 0 0 -0
0 0 0 0 0 0 0 0 0 0 0 0 0 0 0 0 0 0 0 0 0 0 0 0 0 0 0 0 0 0 0 0 0 0 0 0 0 0 0 0 0 0 0 0 0
0 0 0 0 0 0 0 0 0 0 0 0 0 0 0 0 0 0 0 0 0 0 0 0 0 0 0 0 0 0 0 0 0 0 0 0 0 0 0 0 0 0 0 0 0
0 0 0 0 0 0 0 0 0 0 0 0 0 0 0 0 0 0 0 0 0 0 0 0 0 0 0 0 0 0 0 0 0 0 0 0 0 0 0 -0 -0 -0 0 0 0
0 0 0 0 0 0 0 0 0 0 0 0 0 0 0 0 0 0 0 0 0 -0 0 0 0 0 0 0 0 0 0 0 0 0 0 0 0 -0 -0 -0 -0 -0 -0 0 0
0 0 0 0 0 0 0 0 0 0 0 0 0 0 0 0 0 0 0 0 0 0 0 0 0 0 0 0 0 0 0 0 0 0 0 0 0 0 0 0 -0 -0 -0 -0 0
0 0 0 0 0 0 0 0 0 0 0 0 0 0 0 0 0 -0 0 0 0 0 0 0 0 0 0 0 0 0 0 0 0 0 0 0 0 0 0 -0 -0 0 0 0 0
0 0 0 0 0 0 0 0 0 0 0 0 0 0 0 0 0 -0 -0 0 0 -0 -0 0 0 0 0 0 0 0 0 0 0 0 0 0 0 0 0 0 -0 0 0 0 0
0 0 0 0 0 0 0 0 0 0 0 0 0 0 0 0 0 -0 0 0 0 0 0 0 0 0 0 0 0 0 0 0 0 0 0 0 0 0 0 0 0 0 0 0 0
Wind_Speed_500mb
26 29 30 31 30 28 29 30 34 35 36 39 39 43 46 48 48 44 40 31 30 27 31 21 21 23 35 36 30 29 20 32 40 29 26 25 21 15 19 26 29 23 16 13 17
25 28 31 33 32 29 29 29 30 31 34 37 41 43 44 47 50 43 20 22 27 26 35 33 27 29 32 33 25 31 29 43 33 23 28 27 28 29 26 31 31 31 34 19 21
27 28 27 29 29 30 30 29 30 30 31 33 37 41 40 43 37 7 5 1 10 23 25 31 27 32 32 24 34 28 42 31 24 31 37 35 37 37 33 37 39 42 42 31 27
24 26 27 26 28 29 30 31 31 31 32 33 35 39 39 31 15 7 10 5 11 16 18 27 30 33 29 28 35 29 32 39 38 36 41 39 48 49 52 48 46 53 47 42 42
23 24 24 25 26 30 32 31 30 32 31 32 34 37 38 15 26 30 25 17 12 19 23 28 34 31 30 19 34 33 37 39 39 46 51 52 51 56 58 44 54 53 48 45 45
21 24 25 27 29 32 34 32 31 33 32 33 33 32 21 21 20 15 19 31 20 15 21 25 17 25 16 21 28 20 19 29 31 37 44 43 49 49 47 47 56 63 59 53 50
23 31 34 34 33 33 32 29 30 31 31 29 27 24 26 35 32 27 29 22 36 25 23 23 19 19 7 19 24 26 33 34 38 39 34 40 39 49 59 55 54 57 55 52 52
30 35 37 35 34 34 31 30 30 28 27 24 20 14 20 25 21 21 21 26 33 32 30 22 23 21 26 20 19 15 22 27 12 14 17 16 31 11 14 25 35 40 43 43 48
25 31 37 35 33 32 28 30 26 23 20 19 7 9 15 10 3 3 3 7 16 33 28 9 20 30 20 24 20 20 21 24 26 24 25 26 27 12 17 33 41 37 36 39 40
28 28 31 29 26 24 24 25 20 17 12 5 2 7 8 7 8 8 10 8 7 13 20 25 21 21 23 20 20 15 25 21 24 11 27 42 46 41 53 42 43 39 44 40 36
24 29 29 25 17 20 19 9 8 6 8 15 25 33 39 28 34 22 10 11 13 20 26 37 22 30 35 31 32 27 30 34 35 33 39 43 43 38 39 49 46 46 47 46 43
25 26 26 20 12 15 17 12 7 11 18 10 16 20 20 14 15 22 20 24 30 28 22 16 33 34 26 26 33 35 35 35 32 26 23 36 47 46 48 44 51 52 51 49 43
23 21 25 15 5 10 15 13 13 10 9 9 4 6 8 2 10 10 20 31 24 33 33 33 3 10 24 28 30 32 31 29 30 31 36 38 45 21 10 29 44 55 61 56 48
15 18 20 12 4 6 2 11 15 7 6 7 4 7 13 13 10 8 10 26 28 30 30 26 30 24 20 27 30 25 18 22 21 19 14 8 15 22 20 16 20 32 39 50 53
7 15 17 20 7 1 8 3 6 2 10 8 8 2 33 6 26 6 4 19 26 25 18 10 14 18 30 34 20 15 9 14 18 22 25 30 16 9 12 9 19 13 25 39 48
8 11 16 20 11 4 1 3 5 9 2 5 9 20 29 13 9 2 5 7 17 23 27 28 4 9 16 14 30 5 10 17 20 17 15 30 19 7 9 22 22 25 28 19 17
8 11 15 14 7 4 6 4 9 7 9 11 14 22 26 20 11 17 11 14 12 13 24 28 32 24 15 16 15 19 10 6 12 11 14 8 13 20 18 17 20 24 31 31 30
6 9 10 13 9 6 7 7 11 8 6 10 14 25 14 19 9 24 11 20 20 19 17 11 12 28 25 35 19 24 23 10 11 10 4 8 13 9 8 15 26 28 34 39 42
4 5 13 11 8 7 5 5 7 4 6 17 25 16 9 6 15 14 9 13 9 13 14 8 4 5 7 10 23 15 16 8 10 22 14 17 12 13 12 21 27 38 46 47 50
10 16 11 12 11 6 3 7 4 5 10 7 8 4 12 15 19 13 14 9 14 25 29 11 15 8 14 12 12 15 11 8 9 8 11 11 15 5 12 22 29 35 42 45 47
12 8 6 12 13 2 4 7 4 4 11 5 6 12 14 21 14 19 14 2 15 24 28 23 19 12 16 20 23 13 8 11 2 8 7 6 3 10 12 17 25 27 31 34 39
7 4 5 9 2 4 7 5 6 6 6 5 11 14 17 17 19 13 19 11 20 17 22 15 13 23 25 5 14 12 12 19 8 9 5 10 6 14 9 8 14 10 22 27 29
9 8 5 6 4 9 9 4 5 7 6 5 8 8 18 19 13 14 17 8 10 8 6 15 16 21 13 11 11 16 11 5 2 1 12 7 2 8 2 10 7 9 17 22 27
8 5 6 10 11 9 5 4 1 4 10 7 16 18 15 18 17 16 27 15 34 28 23 28 15 24 19 7 12 16 19 16 8 6 6 15 28 27 21 22 3 6 16 19 25
5 4 2 8 10 9 2 3 3 6 4 10 6 7 10 10 27 23 22 35 28 13 9 11 9 4 1 4 5 9 10 12 17 16 13 20 31 31 29 25 4 13 15 22 26
6 7 5 16 9 1 4 1 10 8 4 9 16 22 20 25 26 37 35 24 16 7 18 15 6 5 9 7 3 10 12 15 18 17 21 24 28 11 33 14 19 17 16 26 24
11 12 6 10 9 3 2 2 4 11 11 11 15 28 29 30 23 36 46 47 38 32 10 11 4 9 2 10 12 13 13 1 2 4 14 21 30 31 11 23 22 18 21 26 29
Wind_Direction_500mb
300 304 308 310 311 316 315 315 316 320 318 317 317 317 317 317 313 310 290 272 264 232 217 190 182 188 188 209 211 215 238 244 244 237 252 237 242 228 255 252 245 238 259 296 313
300 304 310 313 316 316 315 315 315 317 315 317 317 319 322 323 317 304 280 274 251 224 203 193 190 184 195 209 208 214 236 246 257 251 253 253 257 265 251 239 230 243 245 273 292
301 306 313 315 314 313 314 314 315 316 314 316 317 318 324 329 316 204 252 264 205 201 196 195 209 199 224 216 215 225 247 262 246 249 256 261 263 255 251 250 250 257 259 267 259
304 306 307 311 314 312 313 315 318 314 313 315 316 315 321 329 298 238 219 194 164 166 179 187 187 208 227 223 229 255 241 260 261 258 257 258 266 265 255 253 259 255 262 262 263
305 312 310 313 316 314 314 317 315 309 310 311 311 311 319 286 267 259 235 209 194 189 185 190 198 211 233 233 242 242 258 264 263 261 263 269 263 265 265 259 253 256 257 257 257
308 311 313 315 317 315 317 318 312 307 308 306 304 303 297 262 263 262 248 229 217 196 201 204 215 222 262 252 247 282 277 272 267 269 266 265 266 261 257 256 255 255 255 252 250
307 312 311 312 315 312 315 313 303 302 303 300 298 293 267 264 269 267 255 238 229 227 221 208 222 223 270 253 269 269 273 273 263 260 251 268 264 252 258 257 254 254 253 249 247
304 308 311 316 314 313 319 311 308 308 301 302 296 254 254 275 282 278 261 258 226 229 232 236 220 237 250 254 260 277 271 270 272 239 228 227 272 224 218 239 248 249 251 246 241
312 313 314 315 313 314 320 318 320 311 308 314 316 214 273 285 331 301 21 205 215 226 221 220 213 218 211 231 256 227 264 262 278 239 277 246 279 304 257 276 271 264 261 252 245
318 326 327 326 323 323 334 329 325 314 318 340 176 243 257 13 303 277 265 216 197 179 174 203 210 214 215 212 232 232 237 250 265 262 283 284 275 273 269 263 263 267 259 253 244
334 336 341 340 343 345 356 359 321 260 286 260 287 277 292 291 280 255 273 237 193 204 205 193 211 218 226 223 251 263 268 274 279 281 281 279 277 276 273 263 254 249 254 245 244
327 339 350 353 15 14 17 87 76 307 308 318 288 264 286 282 278 268 233 227 207 219 209 186 223 234 232 236 238 250 259 270 282 273 277 284 284 283 266 257 253 248 245 247 251
317 339 359 12 65 43 50 48 1 347 289 309 242 269 6 199 283 316 211 223 219 224 209 231 209 216 222 227 233 237 250 265 276 292 278 278 284 255 262 250 252 249 248 245 248
312 340 12 24 62 42 149 339 325 333 270 79 127 74 11 313 261 266 252 228 217 238 225 248 245 225 228 238 221 238 232 253 269 282 278 5 290 298 288 301 261 254 252 243 239
318 353 13 35 23 22 286 262 311 253 299 56 73 53 340 271 312 163 247 202 246 221 198 220 222 221 235 238 206 244 185 245 262 269 292 271 252 259 246 316 3 344 308 249 246
337 1 13 7 26 352 268 197 179 235 241 83 27 355 352 344 346 329 232 216 242 252 236 262 275 252 251 246 227 204 218 244 254 258 253 249 231 258 37 356 338 350 340 345 307
17 8 12 25 315 24 137 194 232 245 0 23 345 341 327 338 332 341 253 223 246 220 229 239 234 225 209 206 184 210 214 238 205 207 251 139 226 275 17 7 359 355 349 340 336
18 16 26 31 34 84 122 234 239 73 7 355 332 320 320 351 333 333 295 251 226 258 279 244 208 210 201 225 236 215 213 242 264 239 245 179 241 111 69 28 12 2 356 350 344
107 115 49 53 45 99 271 228 16 49 7 338 320 306 286 326 337 317 295 308 345 278 269 276 234 157 207 213 197 171 217 281 264 241 262 246 207 183 56 32 16 12 5 351 348
138 114 61 66 62 32 238 83 115 50 345 334 301 332 299 333 316 318 283 66 351 360 343 264 262 193 154 168 206 251 141 187 208 237 237 202 247 139 32 21 8 1 1 352 350
136 129 89 61 50 48 89 73 82 89 1 312 308 294 296 307 293 292 281 92 18 340 328 265 243 175 172 206 201 173 193 220 266 279 295 299 160 108 79 17 340 354 356 354 354
108 99 94 49 76 64 81 41 358 11 6 305 277 274 271 303 296 281 265 299 29 347 313 299 266 236 223 128 266 232 199 211 242 163 290 311 308 115 148 315 346 7 6 357 1
93 87 37 43 114 96 96 79 337 319 344 316 288 275 305 293 301 278 284 310 330 353 333 353 246 218 208 205 211 221 182 174 329 12 249 280 61 124 162 330 23 27 28 15 6
108 129 95 69 86 84 63 31 11 304 298 270 283 286 304 293 262 266 287 304 327 287 282 291 238 242 254 13 152 189 191 200 207 222 278 266 291 299 327 309 75 40 56 41 29
72 98 137 127 90 92 86 201 313 324 248 280 259 95 359 302 311 268 324 320 319 299 304 262 194 295 197 104 138 156 195 211 229 243 264 300 300 314 314 325 359 126 79 66 45
126 156 127 120 130 171 133 154 296 314 276 275 284 309 311 296 289 296 306 310 292 333 331 284 117 66 350 190 172 264 247 259 254 258 268 276 284 340 314 336 138 128 101 84 68
117 118 119 142 142 160 143 311 281 312 288 273 296 308 301 305 306 290 284 278 265 287 288 287 162 141 158 241 325 262 173 139 234 278 321 314 321 313 327 34 106 90 97 96 87
Wind_Speed_850mb
26 29 30 31 30 28 29 30 34 35 36 39 39 43 46 48 48 44 40 31 30 27 31 21 21 23 35 36 30 29 20 32 40 29 26 25 21 15 19 26 29 23 16 13 17
25 28 31 33 32 29 29 29 30 31 34 37 41 43 44 47 50 43 20 22 27 26 35 33 27 29 32 33 25 31 29 43 33 23 28 27 28 29 26 31 31 31 34 19 21
27 28 27 29 29 30 30 29 30 30 31 33 37 41 40 43 37 7 5 1 10 23 25 31 27 32 32 24 34 28 42 31 24 31 37 35 37 37 33 37 39 42 42 31 27
24 26 27 26 28 29 30 31 31 31 32 33 35 39 39 31 15 7 10 5 11 16 18 27 30 33 29 28 35 29 32 39 38 36 41 39 48 49 52 48 46 53 47 42 42
23 24 24 25 26 30 32 31 30 32 31 32 34 37 38 15 26 30 25 17 12 19 23 28 34 31 30 19 34 33 37 39 39 46 51 52 51 56 58 44 54 53 48 45 45
21 24 25 27 29 32 34 32 31 33 32 33 33 32 21 21 20 15 19 31 20 15 21 25 17 25 16 21 28 20 19 29 31 37 44 43 49 49 47 47 56 63 59 53 50
23 31 34 34 33 33 32 29 30 31 31 29 27 24 26 35 32 27 29 22 36 25 23 23 19 19 7 19 24 26 33 34 38 39 34 40 39 49 59 55 54 57 55 52 52
30 35 37 35 34 34 31 30 30 28 27 24 20 14 20 25 21 21 21 26 33 32 30 22 23 21 26 20 19 15 22 27 12 14 17 16 31 11 14 25 35 40 43 43 48
25 31 37 35 33 32 28 30 26 23 20 19 7 9 15 10 3 3 3 7 16 33 28 9 20 30 20 24 20 20 21 24 26 24 25 26 27 12 17 33 41 37 36 39 40
28 28 31 29 26 24 24 25 20 17 12 5 2 7 8 7 8 8 10 8 7 13 20 25 21 21 23 20 20 15 25 21 24 11 27 42 46 41 53 42 43 39 44 40 36
24 29 29 25 17 20 19 9 8 6 8 15 25 33 39 28 34 22 10 11 13 20 26 37 22 30 35 31 32 27 30 34 35 33 39 43 43 38 39 49 46 46 47 46 43
25 26 26 20 12 15 17 12 7 11 18 10 16 20 20 14 15 22 20 24 30 28 22 16 33 34 26 26 33 35 35 35 32 26 23 36 47 46 48 44 51 52 51 49 43
23 21 25 15 5 10 15 13 13 10 9 9 4 6 8 2 10 10 20 31 24 33 33 33 3 10 24 28 30 32 31 29 30 31 36 38 45 21 10 29 44 55 61 56 48
15 18 20 12 4 6 2 11 15 7 6 7 4 7 13 13 10 8 10 26 28 30 30 26 30 24 20 27 30 25 18 22 21 19 14 8 15 22 20 16 20 32 39 50 53
7 15 17 20 7 1 8 3 6 2 10 8 8 2 33 6 26 6 4 19 26 25 18 10 14 18 30 34 20 15 9 14 18 22 25 30 16 9 12 9 19 13 25 39 48
8 11 16 20 11 4 1 3 5 9 2 5 9 20 29 13 9 2 5 7 17 23 27 28 4 9 16 14 30 5 10 17 20 17 15 30 19 7 9 22 22 25 28 19 17
8 11 15 14 7 4 6 4 9 7 9 11 14 22 26 20 11 17 11 14 12 13 24 28 32 24 15 16 15 19 10 6 12 11 14 8 13 20 18 17 20 24 31 31 30
6 9 10 13 9 6 7 7 11 8 6 10 14 25 14 19 9 24 11 20 20 19 17 11 12 28 25 35 19 24 23 10 11 10 4 8 13 9 8 15 26 28 34 39 42
4 5 13 11 8 7 5 5 7 4 6 17 25 16 9 6 15 14 9 13 9 13 14 8 4 5 7 10 23 15 16 8 10 22 14 17 12 13 12 21 27 38 46 47 50
10 16 11 12 11 6 3 7 4 5 10 7 8 4 12 15 19 13 14 9 14 25 29 11 15 8 14 12 12 15 11 8 9 8 11 11 15 5 12 22 29 35 42 45 47
12 8 6 12 13 2 4 7 4 4 11 5 6 12 14 21 14 19 14 2 15 24 28 23 19 12 16 20 23 13 8 11 2 8 7 6 3 10 12 17 25 27 31 34 39
7 4 5 9 2 4 7 5 6 6 6 5 11 14 17 17 19 13 19 11 20 17 22 15 13 23 25 5 14 12 12 19 8 9 5 10 6 14 9 8 14 10 22 27 29
9 8 5 6 4 9 9 4 5 7 6 5 8 8 18 19 13 14 17 8 10 8 6 15 16 21 13 11 11 16 11 5 2 1 12 7 2 8 2 10 7 9 17 22 27
8 5 6 10 11 9 5 4 1 4 10 7 16 18 15 18 17 16 27 15 34 28 23 28 15 24 19 7 12 16 19 16 8 6 6 15 28 27 21 22 3 6 16 19 25
5 4 2 8 10 9 2 3 3 6 4 10 6 7 10 10 27 23 22 35 28 13 9 11 9 4 1 4 5 9 10 12 17 16 13 20 31 31 29 25 4 13 15 22 26
6 7 5 16 9 1 4 1 10 8 4 9 16 22 20 25 26 37 35 24 16 7 18 15 6 5 9 7 3 10 12 15 18 17 21 24 28 11 33 14 19 17 16 26 24
11 12 6 10 9 3 2 2 4 11 11 11 15 28 29 30 23 36 46 47 38 32 10 11 4 9 2 10 12 13 13 1 2 4 14 21 30 31 11 23 22 18 21 26 29
Wind_Direction_850mb
300 304 308 310 311 316 315 315 316 320 318 317 317 317 317 317 313 310 290 272 264 232 217 190 182 188 188 209 211 215 238 244 244 237 252 237 242 228 255 252 245 238 259 296 313
300 304 310 313 316 316 315 315 315 317 315 317 317 319 322 323 317 304 280 274 251 224 203 193 190 184 195 209 208 214 236 246 257 251 253 253 257 265 251 239 230 243 245 273 292
301 306 313 315 314 313 314 314 315 316 314 316 317 318 324 329 316 204 252 264 205 201 196 195 209 199 224 216 215 225 247 262 246 249 256 261 263 255 251 250 250 257 259 267 259
304 306 307 311 314 312 313 315 318 314 313 315 316 315 321 329 298 238 219 194 164 166 179 187 187 208 227 223 229 255 241 260 261 258 257 258 266 265 255 253 259 255 262 262 263
305 312 310 313 316 314 314 317 315 309 310 311 311 311 319 286 267 259 235 209 194 189 185 190 198 211 233 233 242 242 258 264 263 261 263 269 263 265 265 259 253 256 257 257 257
308 311 313 315 317 315 317 318 312 307 308 306 304 303 297 262 263 262 248 229 217 196 201 204 215 222 262 252 247 282 277 272 267 269 266 265 266 261 257 256 255 255 255 252 250
307 312 311 312 315 312 315 313 303 302 303 300 298 293 267 264 269 267 255 238 229 227 221 208 222 223 270 253 269 269 273 273 263 260 251 268 264 252 258 257 254 254 253 249 247
304 308 311 316 314 313 319 311 308 308 301 302 296 254 254 275 282 278 261 258 226 229 232 236 220 237 250 254 260 277 271 270 272 239 228 227 272 224 218 239 248 249 251 246 241
312 313 314 315 313 314 320 318 320 311 308 314 316 214 273 285 331 301 21 205 215 226 221 220 213 218 211 231 256 227 264 262 278 239 277 246 279 304 257 276 271 264 261 252 245
318 326 327 326 323 323 334 329 325 314 318 340 176 243 257 13 303 277 265 216 197 179 174 203 210 214 215 212 232 232 237 250 265 262 283 284 275 273 269 263 263 267 259 253 244
334 336 341 340 343 345 356 359 321 260 286 260 287 277 292 291 280 255 273 237 193 204 205 193 211 218 226 223 251 263 268 274 279 281 281 279 277 276 273 263 254 249 254 245 244
327 339 350 353 15 14 17 87 76 307 308 318 288 264 286 282 278 268 233 227 207 219 209 186 223 234 232 236 238 250 259 270 282 273 277 284 284 283 266 257 253 248 245 247 251
317 339 359 12 65 43 50 48 1 347 289 309 242 269 6 199 283 316 211 223 219 224 209 231 209 216 222 227 233 237 250 265 276 292 278 278 284 255 262 250 252 249 248 245 248
312 340 12 24 62 42 149 339 325 333 270 79 127 74 11 313 261 266 252 228 217 238 225 248 245 225 228 238 221 238 232 253 269 282 278 5 290 298 288 301 261 254 252 243 239
318 353 13 35 23 22 286 262 311 253 299 56 73 53 340 271 312 163 247 202 246 221 198 220 222 221 235 238 206 244 185 245 262 269 292 271 252 259 246 316 3 344 308 249 246
337 1 13 7 26 352 268 197 179 235 241 83 27 355 352 344 346 329 232 216 242 252 236 262 275 252 251 246 227 204 218 244 254 258 253 249 231 258 37 356 338 350 340 345 307
17 8 12 25 315 24 137 194 232 245 0 23 345 341 327 338 332 341 253 223 246 220 229 239 234 225 209 206 184 210 214 238 205 207 251 139 226 275 17 7 359 355 349 340 336
18 16 26 31 34 84 122 234 239 73 7 355 332 320 320 351 333 333 295 251 226 258 279 244 208 210 201 225 236 215 213 242 264 239 245 179 241 111 69 28 12 2 356 350 344
107 115 49 53 45 99 271 228 16 49 7 338 320 306 286 326 337 317 295 308 345 278 269 276 234 157 207 213 197 171 217 281 264 241 262 246 207 183 56 32 16 12 5 351 348
138 114 61 66 62 32 238 83 115 50 345 334 301 332 299 333 316 318 283 66 351 360 343 264 262 193 154 168 206 251 141 187 208 237 237 202 247 139 32 21 8 1 1 352 350
136 129 89 61 50 48 89 73 82 89 1 312 308 294 296 307 293 292 281 92 18 340 328 265 243 175 172 206 201 173 193 220 266 279 295 299 160 108 79 17 340 354 356 354 354
108 99 94 49 76 64 81 41 358 11 6 305 277 274 271 303 296 281 265 299 29 347 313 299 266 236 223 128 266 232 199 211 242 163 290 311 308 115 148 315 346 7 6 357 1
93 87 37 43 114 96 96 79 337 319 344 316 288 275 305 293 301 278 284 310 330 353 333 353 246 218 208 205 211 221 182 174 329 12 249 280 61 124 162 330 23 27 28 15 6
108 129 95 69 86 84 63 31 11 304 298 270 283 286 304 293 262 266 287 304 327 287 282 291 238 242 254 13 152 189 191 200 207 222 278 266 291 299 327 309 75 40 56 41 29
72 98 137 127 90 92 86 201 313 324 248 280 259 95 359 302 311 268 324 320 319 299 304 262 194 295 197 104 138 156 195 211 229 243 264 300 300 314 314 325 359 126 79 66 45
126 156 127 120 130 171 133 154 296 314 276 275 284 309 311 296 289 296 306 310 292 333 331 284 117 66 350 190 172 264 247 259 254 258 268 276 284 340 314 336 138 128 101 84 68
117 118 119 142 142 160 143 311 281 312 288 273 296 308 301 305 306 290 284 278 265 287 288 287 162 141 158 241 325 262 173 139 234 278 321 314 321 313 327 34 106 90 97 96 87